Rochelle, IL

5:59 PM CDT on August 31, 2016 (GMT -0500)
Rochelle

Weather History for KRPJ - February, 2012

Change the Weather History Date:

Friday, February 24, 2012

  Actual Average (KRFD) Record (KRFD)
Temperature  
Mean Temperature 28 °F 29 °F  
Max Temperature 33 °F 37 °F 64 °F (1930)
Min Temperature 23 °F 20 °F -11 °F (1993)
Degree Days  
Heating Degree Days 37 36  
Month to date heating degree days 917  
Since 1 July heating degree days 4826  
Cooling Degree Days 0 0  
Month to date cooling degree days 0  
Year to date cooling degree days 0  
Moisture  
Dew Point 27 °F    
Average Humidity 89    
Maximum Humidity 100    
Minimum Humidity 74    
Precipitation  
Precipitation 0.07 in 0.06 in 1.14 in (2001)
Month to date precipitation 1.10  
Year to date precipitation 2.47  
Snow  
Snow 0.00 in 0.30 in 4.50 in (1994)
Month to date snowfall 6.6  
Since 1 July snowfall 29.9  
Snow Depth -    
Sea Level Pressure  
Sea Level Pressure 29.68 in    
Wind  
Wind Speed 19 mph (NW)    
Max Wind Speed 29 mph    
Max Gust Speed 39 mph    
Visibility 6 miles    
Events Snow    
T = Trace of Precipitation, MM = Missing Value Source: NWS Daily Summary

Daily Weather History Graph

Daily Weather History Graph

Search for Another Location

Airport or City:

Trip Planner

Search our weather history database for the weather conditions in past years. The results will help you decide how hot, cold, wet, or windy it might be!

Date:

Astronomy

Feb. 24, 2012 Rise Set
Actual Time 6:39 AM CST 5:40 PM CST
Civil Twilight 6:11 AM CST 6:08 PM CST
Nautical Twilight 5:39 AM CST 6:40 PM CST
Astronomical Twilight 5:07 AM CST 7:12 PM CST
Moon 7:30 AM CST (2/24) 8:47 PM CST (2/24)
Length of Visible Light 11h 56m
Length of Day
11h 00m
Waxing Crescent, 8% of the Moon is Illuminated
Feb 24
Waxing Crescent
Feb 29
First Quarter
Mar 8
Full
Mar 14
Last Quarter
Mar 22
New

Hourly Weather History & Observations

Time (CST) Temp. Windchill Dew Point Humidity Pressure Visibility Wind Dir Wind Speed Gust Speed Precip Events Conditions
12:15 AM 32.0 °F 21.2 °F 32.0 °F 100% 29.47 in 1.2 mi NNE 16.1 mph - N/A Snow Light Snow
12:35 AM 32.0 °F 20.8 °F 32.0 °F 100% 29.45 in 0.8 mi NNE 17.3 mph - N/A Snow Snow
12:55 AM 32.0 °F 20.8 °F 32.0 °F 100% 29.45 in 0.8 mi NNE 17.3 mph - N/A Snow Snow
1:15 AM 32.0 °F 20.1 °F 32.0 °F 100% 29.44 in 1.5 mi NNE 19.6 mph 25.3 mph N/A Snow Light Snow
1:35 AM 32.0 °F 21.2 °F 31.8 °F 99% 29.44 in 2.0 mi North 16.1 mph - N/A Snow Light Snow
1:55 AM 32.0 °F 18.9 °F 31.8 °F 99% 29.43 in 2.5 mi NNE 24.2 mph - N/A Snow Light Snow
2:15 AM 32.0 °F 20.5 °F 31.6 °F 99% 29.43 in 2.5 mi NNE 18.4 mph 26.5 mph N/A Snow Light Snow
2:35 AM 32.0 °F 20.5 °F 31.5 °F 98% 29.43 in 1.0 mi NNE 18.4 mph 24.2 mph N/A Snow Light Snow
2:55 AM 31.8 °F 20.2 °F 31.5 °F 99% 29.43 in 1.0 mi North 18.4 mph 21.9 mph N/A   Overcast
3:15 AM 31.8 °F 21.8 °F 31.3 °F 98% 29.44 in 1.0 mi North 13.8 mph - N/A Snow Snow
3:35 AM 31.6 °F 20.4 °F 31.1 °F 98% 29.45 in 1.2 mi North 17.3 mph - N/A Snow Light Snow
3:55 AM 31.1 °F 19.7 °F 31.1 °F 100% 29.47 in 1.0 mi North 17.3 mph 21.9 mph N/A Snow Snow
4:15 AM 30.9 °F 19.4 °F 30.7 °F 99% 29.48 in 0.8 mi North 17.3 mph - N/A Snow Snow
4:35 AM 30.7 °F 17.8 °F 30.4 °F 99% 29.49 in 0.8 mi North 21.9 mph 26.5 mph N/A Snow Snow
4:55 AM 30.2 °F 17.4 °F 30.0 °F 99% 29.50 in 0.8 mi NNW 20.7 mph - N/A Snow Snow
5:15 AM 30.2 °F 16.8 °F 30.0 °F 99% 29.51 in 1.5 mi North 23.0 mph - N/A Snow Light Snow
5:35 AM 30.2 °F 17.8 °F 29.7 °F 98% 29.52 in 2.5 mi NNW 19.6 mph 25.3 mph N/A Snow Light Snow
5:55 AM 30.2 °F 17.8 °F 29.3 °F 96% 29.54 in 2.5 mi NNW 19.6 mph 24.2 mph N/A Snow Light Snow
6:15 AM 29.8 °F 17.0 °F 29.1 °F 97% 29.55 in 2.5 mi NNW 20.7 mph 25.3 mph N/A Snow Light Snow
6:35 AM 29.7 °F 18.2 °F 28.8 °F 96% 29.57 in 2.0 mi NNW 16.1 mph 24.2 mph N/A Snow Light Snow
6:55 AM 29.7 °F 18.2 °F 28.4 °F 95% 29.58 in 3.0 mi NW 16.1 mph 23.0 mph N/A Snow Light Snow
7:15 AM 29.7 °F 18.2 °F 28.0 °F 94% 29.59 in 5.0 mi NW 16.1 mph 20.7 mph N/A   Scattered Clouds
7:35 AM 29.7 °F 19.1 °F 28.0 °F 94% 29.60 in 7.0 mi NW 13.8 mph 21.9 mph N/A   Scattered Clouds
7:55 AM 29.7 °F 17.8 °F 27.9 °F 93% 29.61 in 5.0 mi NW 17.3 mph 23.0 mph N/A   Scattered Clouds
8:55 AM 30.7 °F 20.0 °F 27.7 °F 88% 29.65 in 10.0 mi NW 15.0 mph 21.9 mph N/A   Overcast
9:15 AM 31.3 °F 19.9 °F 28.2 °F 88% 29.66 in 10.0 mi WNW 17.3 mph 23.0 mph N/A   Overcast
9:35 AM 31.8 °F 20.2 °F 28.4 °F 87% 29.67 in 10.0 mi NW 18.4 mph 21.9 mph 0.04 in   Overcast
9:55 AM 32.0 °F 20.8 °F 28.4 °F 87% 29.68 in 10.0 mi NW 17.3 mph 25.3 mph 0.06 in   Overcast
10:15 AM 32.0 °F 20.5 °F 28.4 °F 87% 29.69 in 10.0 mi WNW 18.4 mph 23.0 mph N/A   Overcast
10:35 AM 32.0 °F 20.5 °F 28.6 °F 87% 29.71 in 10.0 mi WNW 18.4 mph 21.9 mph N/A   Overcast
10:55 AM 32.4 °F 22.1 °F 29.1 °F 88% 29.72 in 10.0 mi WNW 15.0 mph - N/A   Overcast
11:15 AM 32.9 °F 21.3 °F 29.3 °F 87% 29.73 in 10.0 mi WNW 19.6 mph - N/A   Overcast
11:35 AM 33.1 °F 21.2 °F 28.8 °F 84% 29.74 in 10.0 mi WNW 20.7 mph - N/A   Overcast
11:55 AM 32.9 °F 21.3 °F 27.7 °F 81% 29.74 in 10.0 mi WNW 19.6 mph 28.8 mph N/A   Mostly Cloudy
12:15 PM 33.4 °F 21.4 °F 27.5 °F 79% 29.74 in 10.0 mi WNW 21.9 mph - N/A   Mostly Cloudy
12:35 PM 33.8 °F 22.8 °F 27.5 °F 78% 29.75 in 10.0 mi WNW 18.4 mph 24.2 mph N/A   Scattered Clouds
12:55 PM 32.9 °F 20.7 °F 28.0 °F 82% 29.76 in 10.0 mi West 21.9 mph 25.3 mph 0.01 in   Mostly Cloudy
1:15 PM 32.4 °F 20.0 °F 27.1 °F 81% 29.77 in 10.0 mi West 21.9 mph 27.6 mph N/A   Overcast
2:35 PM 32.9 °F 21.0 °F 28.0 °F 82% 29.80 in 10.0 mi West 20.7 mph 25.3 mph N/A   Overcast
2:55 PM 31.1 °F 18.0 °F 28.4 °F 90% 29.82 in 5.0 mi West 23.0 mph 28.8 mph N/A   Overcast
3:15 PM 29.8 °F 16.0 °F 27.1 °F 90% 29.83 in 2.0 mi West 24.2 mph 31.1 mph N/A Snow Light Snow
3:35 PM 29.3 °F 15.3 °F 26.2 °F 88% 29.84 in 3.0 mi West 24.2 mph 28.8 mph N/A   Overcast
3:55 PM 28.4 °F 13.5 °F 24.8 °F 86% 29.86 in 3.0 mi West 26.5 mph 32.2 mph N/A   Overcast
4:15 PM 28.9 °F 14.3 °F 25.0 °F 85% 29.86 in 7.0 mi West 26.5 mph 29.9 mph N/A   Overcast
4:35 PM 28.4 °F 13.5 °F 23.9 °F 83% 29.87 in 5.0 mi West 26.5 mph 33.4 mph N/A   Overcast
4:55 PM 27.3 °F 11.5 °F 21.9 °F 80% 29.88 in 2.5 mi West 28.8 mph 39.1 mph N/A   Haze
5:15 PM 26.6 °F 10.8 °F 20.8 °F 79% 29.89 in 10.0 mi West 27.6 mph 31.1 mph N/A   Overcast
5:35 PM 26.6 °F 12.0 °F 20.5 °F 78% 29.89 in 5.0 mi West 23.0 mph 32.2 mph N/A   Haze
5:55 PM 26.2 °F 11.2 °F 19.8 °F 76% 29.89 in 10.0 mi West 24.2 mph 32.2 mph N/A   Overcast
6:15 PM 25.7 °F 11.2 °F 19.0 °F 76% 29.90 in 10.0 mi West 21.9 mph - N/A   Mostly Cloudy
6:35 PM 25.7 °F 11.5 °F 18.3 °F 74% 29.91 in 10.0 mi West 20.7 mph 26.5 mph N/A   Mostly Cloudy
6:55 PM 25.5 °F 11.3 °F 18.1 °F 74% 29.92 in 10.0 mi WNW 20.7 mph 27.6 mph N/A   Scattered Clouds
7:15 PM 25.7 °F 11.9 °F 18.5 °F 74% 29.92 in 10.0 mi WNW 19.6 mph 26.5 mph N/A   Mostly Cloudy
7:35 PM 25.2 °F 11.6 °F 18.5 °F 76% 29.93 in 10.0 mi West 18.4 mph - N/A   Mostly Cloudy
7:55 PM 24.4 °F 11.5 °F 18.5 °F 78% 29.93 in 10.0 mi West 16.1 mph - N/A   Scattered Clouds
8:15 PM 23.9 °F 11.2 °F 18.5 °F 80% 29.94 in 10.0 mi West 15.0 mph - N/A   Clear
8:35 PM 23.5 °F 9.9 °F 18.5 °F 81% 29.95 in 10.0 mi West 17.3 mph - N/A   Clear
8:55 PM 23.0 °F 10.6 °F 18.3 °F 82% 29.95 in 10.0 mi West 13.8 mph - N/A   Clear
9:15 PM 23.0 °F 10.1 °F 18.3 °F 82% 29.96 in 10.0 mi West 15.0 mph - N/A   Scattered Clouds
9:35 PM 24.4 °F 11.0 °F 19.4 °F 81% 29.96 in 10.0 mi West 17.3 mph - N/A   Mostly Cloudy
9:55 PM 24.3 °F 11.7 °F 19.2 °F 81% 29.96 in 10.0 mi West 15.0 mph - N/A   Scattered Clouds
10:15 PM 23.4 °F 10.6 °F 18.5 °F 82% 29.96 in 10.0 mi West 15.0 mph - N/A   Scattered Clouds
10:35 PM 22.8 °F 10.4 °F 18.9 °F 85% 29.97 in 10.0 mi West 13.8 mph - N/A   Clear
10:55 PM 22.5 °F 9.4 °F 19.4 °F 88% 29.97 in 10.0 mi West 15.0 mph - N/A   Clear
11:15 PM 22.1 °F 8.9 °F 18.9 °F 87% 29.97 in 10.0 mi West 15.0 mph - N/A   Clear
11:35 PM 21.6 °F 7.8 °F 18.5 °F 88% 29.97 in 10.0 mi West 16.1 mph - N/A   Clear
11:55 PM 21.2 °F 8.9 °F 18.5 °F 89% 29.97 in 10.0 mi West 12.7 mph - N/A   Clear